Theta_e
337 334 334 332 332 333 335 334 335 333 331 331 330 327 324 320 315 313 314 312 318 323 329 326 326 331 334 332 335 338 335 338 346 343 335 333 332 336 339 340 339 339 339 339 339 339 340 340 340 340 341 340 340 340 340 340 340 340 340 339 338 338 337 338 338 338 337 337 337 337 337 338 338 339
336 338 336 335 333 335 335 333 335 333 332 330 330 328 327 325 322 318 317 316 319 321 325 327 326 328 332 334 333 334 333 339 347 338 336 333 333 335 337 338 338 338 338 337 337 338 338 338 338 337 336 337 338 340 340 340 339 339 339 340 339 338 339 339 339 338 338 337 337 337 337 337 337 337
337 336 335 334 333 334 334 333 334 333 333 331 330 330 330 329 327 324 321 316 320 326 325 324 329 330 329 330 332 334 334 337 342 337 334 334 337 339 337 338 337 336 336 335 334 334 333 333 334 334 334 335 335 338 339 339 338 339 339 339 339 340 339 338 338 338 338 338 338 337 337 336 336 336
337 335 335 334 334 333 332 333 333 333 333 333 331 331 331 329 329 327 323 321 323 325 325 324 328 330 331 331 330 330 332 337 345 338 335 335 343 340 336 339 337 335 334 334 333 331 330 331 333 334 334 335 337 338 337 336 336 336 337 338 338 339 338 336 336 338 338 337 337 337 336 336 336 336
337 336 334 333 335 334 333 332 333 333 333 332 333 332 331 330 329 328 325 323 324 326 327 329 331 331 331 329 329 328 328 329 331 340 334 333 334 336 335 335 338 336 333 332 331 331 331 331 332 333 334 335 336 339 338 336 335 335 334 334 333 335 336 334 333 336 337 337 337 337 337 336 336 336
337 336 334 334 334 334 334 333 333 334 333 333 332 332 333 330 331 332 329 326 323 325 325 326 329 330 331 330 328 328 328 328 331 330 331 331 332 333 333 332 333 337 335 332 330 330 330 330 331 331 332 333 334 335 335 334 333 333 332 331 330 330 329 329 331 334 333 335 336 336 336 336 337 336
336 335 334 334 333 335 333 333 333 334 333 334 333 333 333 332 332 332 332 328 325 325 327 325 326 327 329 329 329 329 330 331 331 330 329 330 332 333 333 332 332 335 334 332 331 330 330 330 330 330 332 332 331 331 330 330 330 329 328 328 329 329 328 328 329 331 331 333 334 335 336 335 335 335
335 334 333 333 334 334 333 332 332 333 334 333 333 332 332 333 333 333 332 331 329 326 325 323 326 327 327 328 329 330 331 330 330 330 330 330 330 330 332 331 331 332 332 332 331 330 329 328 327 327 327 327 327 326 325 326 327 326 325 325 325 325 325 325 326 328 328 328 330 332 333 334 334 331
335 335 334 334 334 334 333 332 332 333 332 333 332 332 331 332 332 333 332 331 330 327 325 324 324 327 327 328 328 329 329 329 329 329 329 330 329 329 330 330 331 333 331 331 331 329 328 327 327 327 326 326 326 325 324 324 324 324 324 324 324 324 324 324 323 324 324 325 326 325 327 328 329 330
335 335 335 334 334 333 333 332 331 331 331 331 331 331 331 331 331 330 330 330 329 328 327 326 325 323 326 325 327 329 330 328 327 327 327 328 329 329 329 330 332 333 332 330 331 330 329 329 328 327 327 326 325 325 324 323 322 322 321 319 318 320 321 322 323 323 323 323 324 325 325 326 326 327
336 335 335 334 334 334 333 332 332 331 331 333 332 333 332 332 331 330 330 330 328 328 327 326 326 326 326 326 325 327 329 329 328 326 325 324 326 327 327 328 330 330 330 332 333 332 331 331 329 324 323 325 326 326 324 323 321 321 319 317 316 317 317 318 319 321 320 321 321 321 320 321 325 327
336 336 336 336 335 335 335 334 333 333 333 333 332 333 333 332 331 330 330 329 328 327 327 326 326 325 325 324 326 327 325 323 324 327 326 324 324 325 325 327 327 328 329 328 329 332 331 330 329 326 326 327 327 326 326 327 326 324 321 319 320 320 318 318 318 319 318 318 317 317 318 318 320 322
336 336 337 336 336 338 342 339 338 337 337 334 333 334 333 332 331 331 330 329 327 327 326 326 326 325 325 325 325 324 323 323 324 326 326 325 326 326 326 326 327 329 328 329 329 329 330 328 328 328 327 328 330 328 330 330 332 329 323 321 322 322 321 319 318 319 318 318 317 317 317 317 319 321
336 336 337 338 345 346 347 343 336 330 330 333 337 335 333 334 333 331 330 328 328 327 326 326 327 325 326 326 326 325 326 326 325 324 324 322 324 323 323 325 326 328 328 327 326 327 329 328 327 326 326 328 330 329 329 329 330 329 327 325 324 323 323 321 320 319 318 318 317 317 316 316 318 319
335 335 336 336 344 347 347 345 339 334 330 329 328 329 331 335 334 332 330 329 329 328 328 329 327 326 326 327 328 327 327 327 326 325 323 323 322 321 318 317 321 325 327 325 321 323 325 325 324 325 326 327 327 327 327 329 330 327 326 325 324 323 323 323 322 322 320 318 317 317 316 316 317 317
334 334 335 336 337 340 340 339 338 337 334 331 329 328 328 328 329 331 333 332 330 329 328 328 328 327 327 327 327 327 326 326 325 324 323 323 323 321 319 317 318 322 328 323 321 322 324 324 325 324 326 327 327 328 327 327 327 326 324 324 323 323 323 322 323 323 322 321 321 322 321 320 320 319
333 333 334 335 337 338 346 344 333 332 333 329 328 326 326 326 326 325 324 326 333 332 329 328 328 328 328 327 327 328 327 326 323 323 323 323 322 321 319 320 321 324 326 323 321 320 323 321 323 323 324 325 325 326 326 326 326 325 324 324 324 323 323 322 322 322 321 320 319 319 318 318 318 318
334 334 334 334 335 337 336 331 332 332 331 331 331 331 332 332 333 330 325 323 323 327 330 329 327 329 329 327 327 330 328 325 325 324 322 323 322 322 322 323 323 325 326 324 321 319 321 322 321 319 321 323 323 324 324 324 323 324 323 322 322 321 321 320 320 320 319 319 318 317 315 314 314 315
335 335 336 335 335 334 332 332 333 332 330 330 330 330 331 332 332 333 333 332 329 328 327 327 327 328 329 329 328 329 329 328 328 327 325 325 324 323 322 322 322 322 324 323 319 315 317 317 318 319 320 322 322 323 323 323 323 323 321 321 321 320 319 319 319 317 317 316 315 314 313 312 312 311
336 336 336 335 334 333 331 335 334 333 331 328 327 328 328 330 332 334 334 330 332 334 330 329 328 329 330 328 331 331 329 328 327 328 328 323 320 317 315 316 317 318 320 320 317 315 315 318 318 318 320 320 318 319 320 321 321 319 319 320 319 318 316 315 315 315 315 315 315 314 312 310 309 308
337 337 335 334 332 332 332 330 325 327 334 329 328 328 328 329 331 333 335 327 323 323 322 321 322 322 321 320 319 318 319 326 325 323 319 320 321 316 315 316 315 315 317 319 320 317 315 317 316 317 318 318 317 317 316 316 317 317 316 316 316 315 314 313 313 313 314 314 314 314 314 311 310 310
335 336 344 339 333 333 333 324 321 322 331 329 329 328 329 330 331 332 334 335 332 324 320 319 318 318 319 320 319 318 317 317 320 321 319 320 317 316 316 314 314 316 318 320 322 316 316 318 314 313 312 313 313 314 313 314 315 317 313 314 315 314 314 314 313 313 313 313 314 313 312 310 310 313
333 334 343 343 334 333 329 321 320 320 326 329 329 330 330 330 330 332 330 329 328 327 328 327 328 327 323 325 323 327 323 321 322 322 322 321 317 316 315 316 315 313 314 319 321 315 311 312 311 311 308 306 307 312 313 314 313 314 315 316 315 315 315 314 312 311 311 311 312 312 311 310 311 314
330 333 336 336 323 321 320 317 316 315 318 328 330 331 330 330 330 329 326 327 325 325 326 324 324 325 326 326 325 324 326 328 329 323 322 320 319 317 317 317 317 314 314 316 321 318 314 313 311 308 308 306 304 307 310 311 312 313 313 313 312 314 316 316 313 312 310 310 310 311 310 310 310 315
330 330 330 331 325 317 316 314 312 313 313 321 330 330 330 331 327 323 324 327 331 322 323 321 321 321 321 322 322 322 322 323 324 325 322 322 321 319 318 316 315 315 318 321 324 317 314 309 309 307 308 307 307 306 306 308 309 310 313 312 311 312 312 313 313 314 312 311 309 309 308 310 310 313
327 328 328 329 326 317 314 313 311 309 309 313 321 327 320 315 316 323 324 323 321 319 318 316 317 318 316 316 318 320 321 323 325 323 322 323 324 323 322 320 317 316 316 319 320 314 311 308 308 307 305 304 304 305 304 304 307 308 309 310 310 311 312 312 313 314 315 317 318 315 316 314 313 313
327 327 327 326 325 319 314 311 309 308 309 312 318 313 308 310 316 323 319 320 317 316 315 316 316 315 315 317 317 319 320 321 321 322 321 320 320 322 325 324 323 320 319 318 320 318 312 306 309 306 304 304 303 304 304 302 304 307 308 309 311 311 313 313 314 315 317 317 318 314 312 312 312 313
329 327 324 323 314 311 306 307 310 310 311 320 307 304 309 313 317 319 316 315 315 317 314 314 313 314 314 316 316 318 321 321 319 319 318 317 316 315 315 314 318 318 315 313 313 312 309 307 307 307 305 303 302 301 301 305 307 307 307 309 311 312 314 315 316 318 318 318 318 318 317 317 318 317
329 322 314 306 304 303 302 304 306 308 311 308 305 307 311 319 316 316 313 312 312 312 312 312 314 314 317 318 318 317 317 319 317 317 316 315 315 314 313 312 316 314 315 315 311 308 306 305 304 305 304 304 303 304 304 303 305 306 308 309 309 313 315 316 316 315 316 317 316 317 316 317 316 317
315 311 306 305 306 307 309 315 318 319 317 310 312 311 314 316 315 313 311 311 312 311 311 314 314 316 314 315 315 315 316 314 312 311 311 310 311 312 312 311 309 308 308 308 309 307 306 306 306 305 304 305 306 305 305 305 305 307 309 309 311 314 316 316 315 316 317 316 317 317 317 317 317 317
314 311 313 313 312 313 314 319 321 319 314 312 311 313 314 314 313 314 312 312 312 314 312 313 315 315 314 313 315 313 311 310 309 309 313 310 309 312 309 306 305 304 305 305 307 308 308 308 308 306 305 305 307 306 307 307 306 306 307 309 311 309 312 315 316 316 316 316 317 317 317 317 317 319
319 318 315 314 318 317 316 317 318 316 315 315 313 312 312 313 314 317 320 320 314 312 313 313 313 314 312 311 311 312 309 308 309 310 311 311 308 309 306 301 301 302 302 304 306 309 315 311 309 308 308 307 305 306 306 305 305 305 307 310 313 314 315 314 314 315 316 316 315 314 315 315 315 316
321 318 318 318 317 317 318 316 315 314 314 315 314 314 312 312 312 314 313 315 315 315 313 314 314 313 311 311 310 309 307 308 308 307 308 308 306 305 301 301 302 301 301 303 305 306 306 306 311 308 306 306 306 306 305 303 305 307 308 310 312 313 314 314 314 314 316 315 314 314 314 315 316 316
321 320 319 319 319 319 317 316 315 314 315 315 314 314 317 315 314 314 314 315 315 314 313 312 311 311 310 306 305 306 307 307 306 305 309 304 304 302 300 300 301 302 304 303 303 304 304 303 304 305 305 308 308 307 306 304 305 308 311 312 313 312 314 314 315 315 315 314 313 312 312 312 314 315
323 321 320 320 319 319 318 318 317 317 316 316 316 315 316 315 315 316 315 316 313 313 312 311 309 307 305 304 305 304 306 306 305 303 304 303 303 301 301 300 301 302 303 303 303 302 303 303 302 302 302 303 303 305 314 312 309 311 312 312 313 312 313 315 315 315 314 314 314 312 310 310 310 312
320 320 320 319 319 319 319 319 320 319 318 317 317 317 315 316 317 316 316 311 311 309 307 306 306 305 304 303 303 304 304 305 301 299 301 300 300 302 302 302 304 303 302 301 301 301 302 302 301 301 299 299 299 300 304 316 319 314 311 311 312 313 314 315 315 314 313 312 312 310 306 305 306 309
318 318 320 319 319 318 318 317 316 318 319 319 318 318 316 315 314 314 311 308 308 308 307 307 305 305 305 303 302 303 302 301 299 299 300 300 300 301 299 301 302 301 300 300 301 302 302 301 302 300 298 298 299 300 303 308 310 313 313 311 312 314 314 314 313 312 311 309 307 307 306 306 306 308
318 315 317 315 314 313 313 312 314 315 316 317 317 316 314 313 312 309 306 305 306 307 307 306 307 305 301 302 299 299 299 300 300 300 300 300 299 299 298 298 298 298 298 300 302 302 302 300 300 301 299 299 299 300 300 304 306 308 311 313 313 314 315 313 310 307 306 306 305 306 307 306 306 308
315 314 315 313 311 311 312 312 313 311 311 311 311 310 309 308 307 306 306 305 305 304 304 303 302 302 302 300 301 300 299 299 298 298 300 298 298 297 299 298 298 299 299 300 300 300 300 299 300 300 300 300 300 301 303 303 304 309 312 310 313 313 313 310 307 306 304 304 305 307 307 309 310 313
314 314 313 313 311 311 311 312 310 310 310 310 308 308 308 308 307 306 305 305 303 304 302 302 303 301 300 300 301 299 299 299 299 297 298 299 299 300 298 299 299 300 299 299 300 300 299 300 301 301 302 303 305 307 307 307 309 312 314 313 308 310 311 309 306 304 304 304 305 304 304 306 304 306
314 313 313 312 311 311 311 310 311 310 310 310 310 309 308 306 305 305 304 304 307 302 302 300 300 300 300 300 300 300 299 298 297 298 301 299 299 300 302 303 298 299 298 298 298 298 299 300 305 309 311 308 306 307 308 307 306 308 309 311 308 307 307 308 306 305 303 306 305 303 302 302 302 302
314 312 313 310 312 310 309 308 307 307 307 307 307 308 306 305 304 310 308 307 303 302 301 300 300 302 301 300 299 300 297 296 296 297 299 297 296 298 301 299 296 298 297 298 298 299 301 303 306 305 303 303 303 304 304 306 306 307 308 309 309 308 307 307 306 307 306 305 304 302 301 301 302 301
314 312 312 311 311 310 309 309 308 308 307 306 305 306 305 304 304 304 302 302 302 303 301 301 300 300 300 298 297 297 296 297 297 297 297 297 297 297 296 297 298 299 299 299 300 300 301 302 302 302 301 301 303 306 305 306 307 307 306 306 306 306 307 308 307 307 307 307 307 306 304 302 299 297
313 312 311 310 310 309 308 308 307 307 307 306 305 305 304 303 301 301 301 299 299 299 300 300 299 298 297 298 298 297 298 299 298 298 298 298 298 297 297 298 300 299 299 299 298 299 300 301 301 301 300 300 304 305 306 307 306 307 305 305 305 303 303 305 306 306 306 306 307 306 306 306 306 306
313 312 311 310 309 308 308 307 308 306 306 305 304 303 303 302 302 301 299 299 299 299 300 298 298 298 297 299 295 297 299 303 299 298 298 298 297 298 298 299 299 299 299 298 297 298 299 299 300 300 300 304 306 306 309 310 307 306 304 303 302 302 302 304 303 301 301 302 304 306 305 306 306 306
Wind_Speed
5 5 5 6 5 5 4 3 3 5 3 4 5 6 6 6 4 2 1 2 3 1 2 1 1 1 2 4 5 5 6 7 7 5 6 6 5 9 13 13 12 12 13 13 13 13 13 14 14 14 14 13 13 13 12 12 12 11 11 12 13 12 11 9 10 9 9 9 9 9 9 10 10 11
5 4 4 4 5 4 4 5 4 5 5 5 5 5 4 6 6 4 4 5 3 3 2 2 2 1 2 1 2 3 5 8 8 5 6 6 6 10 12 12 13 12 11 11 11 12 13 14 14 13 13 13 14 13 14 14 14 14 13 13 13 13 11 10 10 11 11 10 10 10 10 11 11 11
5 5 5 4 5 4 5 4 4 3 4 5 5 4 5 4 5 5 4 1 4 3 4 3 2 1 1 2 3 3 4 5 5 5 6 6 9 13 10 12 11 11 11 10 10 11 12 12 13 13 13 14 14 13 14 15 15 15 14 14 14 13 12 11 11 11 11 12 11 10 11 11 12 12
5 5 5 5 6 5 4 4 4 4 3 3 4 4 5 4 4 5 4 4 8 4 3 3 3 3 3 3 3 4 4 5 9 6 7 8 9 8 6 9 12 12 11 11 11 12 13 13 13 13 14 14 13 13 16 16 16 16 16 15 14 14 14 12 11 10 11 12 12 12 12 13 13 12
6 6 6 6 6 5 5 6 5 4 4 3 4 3 3 4 3 4 4 5 7 5 2 3 4 3 1 3 4 4 4 4 3 4 4 4 4 5 6 5 9 11 12 13 13 13 13 13 13 14 15 15 15 13 15 17 17 16 16 16 15 15 14 13 12 11 11 11 12 13 13 13 13 12
6 6 7 6 5 4 6 5 6 6 5 4 5 4 4 5 5 5 5 6 4 8 3 3 3 4 2 4 2 4 4 5 4 5 4 2 3 5 5 6 6 11 12 13 14 14 14 13 13 14 15 16 16 17 17 17 16 16 16 16 15 15 15 14 14 10 12 12 13 13 14 13 12 13
6 6 6 7 5 3 4 5 5 5 5 5 5 5 4 5 5 5 6 5 6 7 7 3 3 3 3 4 6 4 4 4 3 4 5 6 5 3 4 5 5 9 12 13 14 14 14 13 13 13 14 15 15 16 16 16 16 15 15 15 15 15 15 15 15 14 15 14 13 14 13 14 13 12
7 8 6 6 5 4 5 5 5 5 4 5 5 5 5 5 6 5 5 6 6 5 6 3 5 4 5 5 5 4 3 3 5 5 6 5 5 7 6 5 5 8 12 13 14 15 14 13 13 13 13 13 14 15 15 15 14 15 15 15 15 15 15 15 15 16 16 16 16 14 14 14 14 14
8 8 7 7 5 5 7 6 6 5 5 5 5 6 5 5 5 4 5 6 5 5 7 5 3 4 4 4 4 3 5 5 5 4 6 7 8 7 6 5 6 8 12 14 14 14 13 13 13 14 13 13 14 14 14 15 15 15 16 16 16 16 16 16 16 16 16 16 16 15 16 16 16 16
7 8 8 6 6 6 8 7 5 4 5 4 5 5 5 5 4 5 5 5 5 6 7 6 6 3 5 4 4 4 5 6 6 6 6 5 6 6 8 8 6 5 4 4 6 8 10 12 14 13 12 13 13 14 14 15 15 15 16 16 16 16 17 17 17 17 17 16 15 16 16 16 16 16
7 8 7 7 7 7 7 6 6 5 5 5 6 7 7 5 5 5 6 6 6 6 7 6 6 6 4 5 6 5 4 5 6 6 5 6 6 5 6 8 7 5 6 7 10 9 9 9 7 9 11 12 12 13 14 14 15 15 16 16 16 17 17 18 18 18 17 16 15 15 15 16 16 17
7 7 7 8 8 8 7 7 6 7 7 5 6 6 5 5 6 6 6 6 6 6 6 7 7 5 6 3 5 2 1 3 4 6 6 7 7 7 5 7 8 5 4 6 6 6 7 7 8 10 10 11 12 13 12 13 14 16 16 16 17 17 17 18 17 18 18 18 18 17 16 15 16 16
8 7 8 7 7 8 9 11 9 9 8 7 7 6 6 6 7 6 6 6 6 6 6 7 5 5 6 6 5 5 5 7 9 5 5 6 7 6 6 6 6 7 7 6 5 6 6 6 6 6 6 7 8 8 9 9 12 14 14 15 16 17 17 16 17 17 18 18 18 17 17 16 16 16
8 9 8 8 12 12 13 13 14 13 13 12 8 7 6 7 6 7 6 6 6 6 6 7 7 7 8 7 6 7 7 6 3 4 5 5 6 4 6 6 5 4 4 4 5 6 5 4 6 5 7 7 6 5 5 6 8 10 14 15 15 15 15 15 15 16 16 16 16 16 16 15 15 16
9 7 8 6 9 10 11 12 14 13 12 12 11 9 6 5 6 6 7 6 6 6 7 7 5 7 9 9 7 7 7 4 5 5 3 5 3 4 4 6 5 2 5 3 3 4 4 3 5 6 7 7 5 5 6 10 13 14 14 15 15 15 16 16 16 16 16 15 14 14 14 14 15 15
8 8 7 6 5 6 5 4 3 3 5 7 8 7 7 7 8 8 6 6 5 5 6 7 7 6 7 8 6 5 3 5 5 4 3 3 4 4 4 3 5 4 1 2 3 6 5 3 5 6 7 7 6 7 10 14 15 16 16 16 16 16 16 16 15 14 13 14 13 13 13 14 14 14
7 6 7 6 5 5 8 3 3 3 3 5 5 3 4 5 8 12 12 9 7 4 6 6 7 7 5 6 5 3 3 2 3 2 4 5 5 5 6 6 5 6 1 2 3 6 6 2 4 6 7 7 6 8 11 15 16 16 16 16 16 16 15 13 12 13 13 12 12 12 12 13 14 15
7 7 7 7 6 5 3 5 5 4 4 3 1 1 2 4 6 11 14 13 11 9 7 7 8 7 3 7 7 7 3 3 4 6 8 7 6 6 7 5 5 5 2 5 3 5 6 5 6 7 7 6 6 6 10 15 16 15 15 16 16 15 14 13 13 12 11 11 11 12 12 13 14 15
8 8 8 7 7 5 5 5 6 6 4 3 3 2 4 7 8 5 4 6 7 6 6 7 8 8 8 7 7 5 3 5 6 7 7 6 6 5 3 5 5 6 5 4 3 6 3 3 5 6 6 5 6 6 9 12 12 13 14 14 14 13 13 11 9 9 10 11 12 13 14 15 15 15
8 8 8 7 6 5 6 8 12 9 6 4 3 5 6 6 5 6 7 9 8 6 6 6 7 8 7 7 6 5 5 5 4 3 3 3 3 3 4 7 5 5 4 3 4 4 3 4 6 5 5 4 5 6 6 9 11 12 13 13 13 11 9 9 10 11 13 14 15 16 16 16 17 16
7 7 7 7 7 7 7 10 13 12 8 4 5 6 7 5 4 7 4 6 7 8 8 9 8 7 7 8 9 10 9 6 2 2 2 6 4 4 6 6 5 6 3 2 4 3 5 4 3 6 4 5 5 5 6 6 8 11 12 11 11 11 11 12 13 14 14 16 17 17 17 17 16 17
6 7 12 9 8 8 6 11 12 10 6 5 6 4 3 6 8 8 3 2 1 4 6 6 7 8 8 8 8 8 8 9 4 4 6 5 2 4 5 6 5 5 5 6 2 2 5 5 2 4 4 3 3 5 6 6 7 8 9 11 13 14 15 16 15 15 16 17 18 18 18 18 17 12
6 7 9 13 10 8 8 12 12 11 8 6 4 4 3 7 8 7 3 3 3 2 1 1 1 1 3 2 2 4 8 8 5 5 7 5 4 6 5 6 5 5 4 3 2 2 3 4 4 4 4 4 5 5 5 6 5 6 6 8 10 13 15 16 16 17 18 18 19 19 19 18 15 9
5 6 7 10 13 12 12 12 14 11 9 6 5 3 5 6 9 3 2 2 1 1 0 2 2 3 4 4 3 3 3 4 2 5 6 5 5 6 6 5 4 5 3 4 2 4 3 3 4 1 3 6 4 1 3 6 6 7 7 8 7 11 14 15 14 17 18 18 19 19 18 18 15 9
8 7 7 6 9 13 14 13 10 4 8 8 5 5 6 6 2 3 3 2 2 0 1 1 3 4 4 4 4 4 4 3 3 3 3 4 5 6 5 6 5 6 7 7 6 3 3 1 5 2 4 3 5 7 3 5 5 6 7 7 8 9 8 9 8 9 12 16 16 17 17 17 19 14
7 8 7 7 9 10 8 8 6 6 6 6 3 5 4 3 6 2 2 1 0 0 1 2 2 3 3 4 5 5 3 3 3 3 2 4 6 6 6 7 6 5 5 4 3 3 3 3 4 5 4 4 6 5 8 6 6 7 7 7 7 9 9 9 8 9 9 8 9 11 13 17 18 20
8 7 7 5 2 5 6 7 7 6 6 5 6 5 6 6 4 3 1 1 0 1 1 1 3 3 3 4 5 5 5 5 3 4 3 3 3 4 5 6 6 7 6 5 4 4 3 4 2 4 6 5 7 7 7 7 6 4 6 7 8 9 8 8 9 9 9 9 10 15 16 17 19 21
7 7 5 4 5 5 4 3 4 5 6 3 6 8 7 6 4 2 2 1 0 0 1 2 4 5 4 4 4 5 5 5 4 4 3 4 3 4 4 4 4 4 5 6 6 5 4 5 5 5 5 6 7 8 10 7 8 7 9 8 8 9 9 9 9 9 9 9 9 9 9 10 10 11
6 5 7 9 8 7 6 7 7 6 4 5 7 7 7 6 2 3 2 2 1 1 3 4 4 4 5 5 5 4 3 3 1 1 3 3 3 3 4 4 3 3 3 4 5 5 4 4 6 6 5 4 6 7 7 10 9 9 8 10 9 8 8 8 8 9 10 9 10 10 10 10 10 9
8 9 9 10 9 8 8 6 4 3 3 5 5 5 5 3 3 4 3 2 3 5 5 3 5 6 5 3 3 2 1 1 3 2 2 3 5 5 5 6 7 6 6 6 6 6 5 5 5 6 6 7 7 8 9 9 10 10 9 9 11 11 9 9 8 8 9 10 10 11 10 10 11 11
6 7 7 5 6 5 7 4 4 5 7 5 3 3 4 4 4 4 5 5 5 4 4 4 5 5 4 2 1 2 1 2 5 2 2 3 5 4 3 3 6 7 7 6 6 5 5 6 6 5 6 7 7 8 9 8 10 10 10 9 9 10 10 10 10 10 10 10 10 11 11 11 12 12
6 6 7 7 4 4 3 2 3 3 3 3 3 4 5 4 3 4 5 4 3 4 4 4 3 4 2 2 3 3 2 3 5 3 2 1 4 4 3 3 5 6 7 7 7 6 6 6 6 6 6 7 8 9 7 7 9 10 11 10 10 10 10 10 11 11 11 10 11 12 12 12 12 12
5 5 5 4 4 3 3 3 3 3 3 3 4 5 4 3 2 3 3 5 5 5 3 5 5 5 3 5 2 1 2 3 3 3 4 3 3 4 2 4 6 7 7 8 7 7 6 7 5 6 7 7 7 8 8 9 9 9 10 11 10 10 11 10 10 12 11 10 11 12 14 13 13 13
6 4 5 4 5 5 4 4 4 5 5 5 5 5 4 4 3 3 3 5 5 3 3 4 3 6 3 2 1 1 2 4 4 4 2 3 2 2 4 6 7 6 6 7 7 8 7 6 7 7 5 5 5 7 8 9 10 10 11 10 10 11 11 10 11 12 11 10 12 14 15 15 13 12
6 5 6 5 5 5 5 5 6 6 6 6 5 5 5 5 4 3 4 6 4 3 5 5 4 3 2 1 1 1 2 2 4 5 4 2 3 4 5 6 7 7 7 7 7 7 6 8 7 8 8 8 9 7 7 9 9 11 10 9 9 11 12 10 10 10 11 12 10 14 17 16 15 12
6 5 5 5 5 5 6 7 6 6 6 6 6 5 5 5 4 4 6 3 4 3 3 3 2 2 1 1 0 1 2 1 3 3 5 6 5 6 5 5 5 6 6 7 7 7 6 7 6 6 8 8 8 9 10 8 9 8 11 11 10 10 11 11 11 11 11 12 12 12 16 18 16 14
6 6 6 6 5 5 6 5 6 6 7 6 6 6 6 5 4 4 3 3 3 3 3 5 4 4 1 1 1 1 1 1 3 4 6 6 5 3 4 5 5 6 6 7 6 7 5 5 6 6 6 8 8 10 11 9 12 9 7 11 12 11 11 11 11 13 12 12 15 13 14 15 17 15
6 6 6 5 4 4 3 3 4 4 4 4 5 4 3 3 3 4 3 5 5 4 5 4 3 2 1 1 1 2 3 3 2 3 4 4 4 5 5 6 7 7 7 7 6 7 6 6 7 7 5 7 9 11 12 10 9 9 7 9 12 14 11 11 11 13 15 12 13 14 13 15 15 15
6 6 6 5 4 5 5 5 6 6 5 6 6 5 5 5 5 4 5 5 4 4 3 3 2 2 2 1 1 0 1 3 4 4 3 4 3 4 6 6 6 7 6 7 7 7 6 7 7 7 6 6 9 10 10 11 12 12 10 11 10 11 10 8 13 14 14 15 13 12 13 14 17 22
5 5 6 6 6 6 6 6 6 6 6 6 6 6 6 5 5 5 5 4 3 3 3 3 2 2 1 1 0 1 0 1 2 3 3 3 4 4 5 5 6 6 6 7 7 8 7 8 8 7 7 9 10 10 10 10 10 9 9 10 11 9 7 9 13 14 15 13 13 14 14 11 12 10
5 6 6 6 6 6 6 6 6 6 6 6 6 5 5 6 6 5 6 5 4 4 3 4 3 2 2 1 0 0 0 1 1 2 3 4 4 4 6 5 6 5 6 7 7 8 9 9 11 17 13 8 8 7 6 7 9 10 11 9 4 6 9 11 12 12 13 14 13 13 13 13 13 12
6 6 6 5 6 6 7 7 6 7 6 6 6 6 5 5 6 6 5 4 4 4 4 3 3 3 1 0 1 2 1 1 1 3 4 5 5 5 6 5 5 6 6 7 8 9 10 10 10 9 7 7 7 6 8 8 10 11 11 10 9 8 11 15 17 16 13 12 12 12 12 12 9 9
5 6 7 6 6 6 6 7 7 7 6 6 6 6 6 5 4 5 4 4 4 5 4 3 3 1 0 1 2 1 0 1 2 3 4 4 4 5 6 6 6 7 6 7 8 8 9 9 8 8 8 6 4 3 7 9 9 10 11 12 12 12 12 12 14 16 17 18 15 11 10 10 10 11
6 6 6 7 7 6 6 7 6 6 6 6 6 5 6 6 6 5 6 4 3 2 1 1 0 1 2 3 1 0 1 1 1 2 4 4 4 4 4 6 6 6 7 6 8 9 9 9 9 7 6 7 6 6 8 9 9 9 10 11 11 13 14 14 12 12 14 14 14 17 21 19 14 13
7 7 7 6 6 6 6 6 7 6 6 6 6 7 6 4 4 4 3 3 3 3 4 4 4 4 2 1 2 2 1 1 2 2 2 3 4 4 5 6 6 7 7 7 7 9 8 8 9 6 5 6 5 5 6 7 9 9 10 12 14 13 12 12 14 15 14 13 15 21 21 22 21 19
Wind_Direction
186 186 197 188 189 197 185 182 181 186 170 165 165 162 155 159 144 209 278 279 216 293 211 164 292 304 247 206 196 185 198 210 203 195 195 204 209 221 227 231 230 230 231 231 230 228 227 229 234 240 244 249 250 251 251 249 253 255 254 256 259 259 262 263 260 255 254 257 262 267 272 277 282 288
189 192 193 200 197 199 173 175 179 170 171 162 169 171 157 150 164 177 193 263 223 241 287 202 239 322 301 308 250 208 208 219 208 198 207 211 221 228 229 231 231 232 232 229 225 224 225 230 235 240 243 246 249 250 250 251 250 248 248 250 254 259 260 259 259 262 261 256 253 255 262 268 272 276
186 197 207 201 213 198 193 187 182 178 162 175 166 165 147 168 156 170 165 218 283 194 232 280 231 201 273 236 247 264 256 254 240 223 215 219 225 230 231 230 233 235 235 231 231 234 235 234 236 239 241 243 244 243 246 251 254 253 251 252 254 254 256 259 259 258 259 260 258 253 254 259 263 266
192 195 204 205 209 211 199 195 188 186 190 174 178 178 173 177 170 158 169 211 258 223 207 233 269 249 268 267 242 257 256 253 241 225 219 224 228 233 234 230 227 229 233 237 238 240 242 243 243 243 245 247 246 241 246 249 251 252 252 252 252 253 255 257 258 256 256 257 255 255 253 254 256 259
194 198 204 209 213 197 195 202 196 194 201 192 199 197 181 190 178 161 181 215 259 289 245 259 265 271 252 289 219 238 262 271 258 237 225 223 227 234 238 240 233 229 233 239 242 244 244 245 245 246 248 250 250 244 247 250 250 251 251 252 252 251 252 254 255 255 255 254 252 250 249 253 254 256
199 196 205 214 214 201 201 197 199 200 197 196 202 209 195 210 200 194 174 214 225 262 311 302 297 289 275 264 286 257 273 286 298 303 294 255 208 216 224 235 243 238 236 241 246 249 250 249 247 246 247 249 250 252 254 254 254 253 252 252 252 253 253 253 254 249 251 253 252 250 250 244 243 254
191 198 205 213 205 193 207 205 203 192 196 190 194 207 198 209 215 204 200 187 225 247 264 251 271 267 273 230 264 275 258 265 285 300 295 289 290 260 222 228 236 242 244 247 250 251 252 252 251 248 248 249 251 253 254 256 257 258 256 254 253 252 253 253 252 252 255 253 250 253 249 249 244 244
190 198 202 213 203 191 200 210 209 207 201 196 200 206 208 207 217 215 205 210 213 224 246 271 220 239 231 256 254 255 256 260 276 261 275 281 273 279 275 246 235 237 238 244 246 247 246 245 245 246 247 248 250 253 254 255 256 256 256 256 255 256 256 255 254 254 254 255 255 255 254 253 249 248
191 195 202 206 200 193 204 210 207 203 205 209 203 211 211 207 218 219 211 220 214 224 239 260 249 236 241 243 249 237 242 263 262 268 262 265 270 273 268 269 256 249 236 237 240 238 236 235 237 240 243 246 249 249 250 251 252 254 256 258 259 259 259 260 259 258 256 254 255 255 254 255 255 253
191 192 197 197 190 194 201 205 203 199 208 205 210 215 216 212 207 215 226 221 219 220 238 237 265 250 233 255 237 230 219 237 258 272 268 277 271 268 282 272 262 254 241 225 230 238 240 238 238 239 240 244 246 247 247 247 248 250 251 253 255 257 258 258 258 258 258 257 254 251 252 251 252 254
196 198 196 192 191 198 203 201 199 197 207 208 217 216 217 212 201 214 223 218 221 227 241 248 237 254 248 223 256 246 218 232 228 243 268 274 263 250 242 266 273 266 266 265 262 263 264 266 268 263 257 251 246 245 244 244 246 248 249 250 250 252 253 255 258 262 263 260 257 255 253 254 253 254
208 204 199 197 196 197 198 200 201 191 204 205 218 219 212 208 206 218 222 219 223 233 241 244 255 236 248 239 245 286 146 238 267 229 220 244 260 258 240 233 251 266 258 269 274 264 269 270 265 265 262 259 257 251 249 248 247 247 248 249 250 251 252 253 257 260 264 267 267 263 256 252 254 253
209 207 206 204 198 194 197 205 207 205 200 194 211 221 206 210 210 220 214 216 216 231 237 260 255 264 260 248 249 254 232 223 236 231 191 232 246 257 273 262 233 238 252 259 262 274 260 271 276 277 288 280 270 264 259 263 263 258 252 249 250 251 251 249 248 250 252 253 255 257 258 254 251 253
207 209 205 207 202 196 204 211 214 213 211 211 209 213 202 213 212 215 217 214 215 219 236 243 246 256 260 257 236 239 243 238 243 257 242 246 256 263 261 281 267 230 213 235 256 262 264 247 270 277 272 273 268 267 260 244 244 250 251 253 254 255 257 256 252 249 251 254 255 254 254 254 251 251
209 207 207 202 203 203 211 215 216 218 222 229 241 259 269 257 220 215 224 229 208 212 232 240 233 239 258 262 251 245 257 255 248 253 245 244 257 252 260 274 304 277 183 218 216 260 263 232 255 264 263 268 270 261 255 255 256 257 260 263 265 264 264 265 266 266 266 265 265 265 265 262 258 253
208 206 204 203 199 206 204 207 216 229 222 227 223 219 226 238 252 252 232 226 217 212 227 238 236 236 249 263 262 265 255 261 263 238 217 236 252 262 257 243 247 256 177 197 256 267 274 261 246 262 262 264 259 260 264 268 270 272 273 272 271 271 271 271 277 283 282 279 275 269 266 264 264 261
204 200 200 203 205 197 208 184 129 144 150 141 136 148 179 222 243 249 240 224 220 204 217 235 256 240 248 263 263 221 235 181 213 284 280 267 256 244 249 249 262 269 242 294 266 267 269 249 250 251 259 260 264 271 271 270 271 274 276 277 278 279 282 287 286 281 281 282 279 274 271 269 268 267
198 198 192 194 199 203 150 127 147 130 114 118 117 270 290 284 257 244 243 239 233 225 228 236 251 261 224 252 263 263 189 178 260 281 277 272 272 262 253 253 258 273 275 254 268 272 272 259 259 258 259 254 256 257 260 266 272 279 281 282 282 282 281 279 279 278 275 275 273 271 267 265 264 263
198 199 196 188 191 175 160 167 147 135 152 186 216 241 255 243 247 261 264 231 225 218 216 224 236 258 263 254 254 253 199 220 238 234 244 255 257 269 292 299 266 272 249 231 200 255 250 256 260 256 262 265 264 254 262 267 270 270 273 277 281 279 276 273 269 270 270 270 271 271 270 268 264 260
200 198 193 185 172 169 170 159 156 163 182 205 235 257 262 267 264 257 244 240 227 213 205 211 220 229 239 244 249 248 237 238 244 258 260 269 251 262 279 273 289 279 273 214 211 253 252 237 244 262 261 262 265 267 269 272 268 268 271 271 270 272 272 270 267 268 273 275 273 272 270 268 265 263
195 192 186 173 168 167 169 176 173 188 185 189 215 234 247 259 266 256 221 216 224 228 232 240 252 259 255 253 249 252 251 241 222 191 274 265 258 270 277 279 286 275 272 248 192 224 272 252 247 273 263 255 254 263 267 270 271 269 270 272 271 264 257 257 266 273 274 275 274 273 272 270 266 262
196 189 173 168 170 175 180 175 191 204 185 208 223 233 264 280 280 283 302 310 264 230 233 240 238 239 248 247 250 248 247 241 215 202 235 248 186 231 235 266 259 279 290 274 265 268 251 282 265 264 260 268 251 252 255 256 268 275 278 272 264 262 265 271 273 273 273 272 272 272 270 270 270 270
185 195 181 172 174 175 182 187 205 207 194 215 206 194 226 256 263 270 281 259 281 336 4 342 349 293 258 251 255 276 270 266 218 204 230 256 235 256 264 264 291 300 275 273 174 247 277 306 265 274 308 282 259 243 242 254 257 257 259 262 265 267 269 268 267 267 266 266 266 266 266 266 267 264
206 191 186 185 178 182 187 200 211 210 192 205 207 194 225 243 256 234 191 207 161 95 42 292 317 302 313 317 309 295 292 292 224 200 219 223 212 224 244 257 251 252 260 268 270 278 258 236 271 255 243 290 298 278 289 271 250 260 264 270 269 269 268 267 266 262 259 259 260 261 262 261 257 261
185 199 200 204 196 199 205 212 223 215 197 212 212 208 221 231 226 131 186 213 70 89 311 318 317 311 311 310 309 308 304 286 256 213 217 216 208 212 226 246 249 244 248 259 280 295 271 286 286 262 269 228 267 290 242 266 268 262 261 260 267 267 263 261 261 265 264 259 256 255 256 256 257 254
188 193 200 211 220 209 212 225 222 209 209 221 230 240 237 146 147 155 160 150 99 22 340 311 313 309 313 311 310 301 285 266 282 285 244 216 213 217 217 220 237 261 270 271 257 219 245 271 244 278 277 286 280 266 294 274 266 268 263 260 255 261 262 269 268 266 262 261 263 257 256 255 253 253
193 197 204 213 167 169 198 220 231 234 222 207 230 215 156 162 164 136 147 163 134 337 321 327 300 298 294 299 292 291 295 287 272 256 236 235 227 227 226 232 229 239 257 271 266 256 226 249 234 247 264 253 279 287 279 290 287 263 267 265 268 266 264 260 260 260 261 262 263 262 261 258 258 256
192 196 201 176 143 149 155 179 194 196 177 175 155 149 162 159 163 169 165 139 146 337 327 295 282 275 272 267 275 269 264 276 284 274 277 272 266 260 268 269 262 243 245 246 257 254 237 247 270 260 243 258 277 286 290 278 275 279 285 280 273 273 268 259 258 259 261 263 264 264 263 264 256 257
188 158 127 122 126 130 134 137 129 118 116 126 158 164 163 175 161 165 148 162 133 205 236 237 250 258 256 240 241 255 271 274 295 297 294 287 285 283 261 261 272 285 279 274 270 265 252 248 263 281 290 269 264 270 275 280 288 290 284 291 290 276 272 264 259 264 270 268 265 259 255 255 257 250
103 113 117 121 125 131 142 140 142 150 148 133 142 160 184 190 189 175 164 167 179 218 230 235 239 246 249 251 248 262 280 266 270 269 276 305 309 321 325 332 312 300 286 279 279 281 286 275 262 262 271 274 259 265 269 280 286 283 284 278 277 285 272 270 270 272 272 272 268 265 261 255 255 256
101 111 124 142 148 140 153 137 130 124 125 136 176 200 208 208 198 181 183 188 197 218 228 242 248 257 269 298 309 270 234 265 281 259 271 298 286 293 295 297 290 295 291 293 292 285 278 272 269 259 263 271 273 259 266 267 277 284 280 274 280 279 285 286 284 281 278 274 272 269 267 264 261 255
119 116 115 119 124 121 116 83 94 116 142 170 181 205 210 205 196 207 215 212 203 219 216 244 266 282 288 282 265 279 295 281 281 300 315 273 289 288 308 319 291 291 297 301 302 295 287 278 272 269 244 249 267 279 280 272 274 278 279 279 276 275 278 280 284 283 278 277 274 270 266 264 265 263
102 108 117 115 127 146 165 179 172 167 186 217 211 209 196 185 188 211 204 212 224 227 213 246 255 266 283 263 263 290 312 294 295 335 326 285 242 289 280 273 288 301 305 305 300 293 286 284 271 258 257 261 249 258 273 286 278 271 276 280 280 279 280 277 278 280 284 279 271 274 275 270 267 265
131 150 156 174 180 187 186 194 201 204 205 216 217 224 203 194 197 209 216 232 241 236 224 236 241 249 227 246 296 312 286 307 311 299 275 280 311 302 302 307 297 297 295 292 298 297 304 300 310 310 300 281 258 246 250 258 269 274 271 273 276 278 278 279 277 277 278 276 282 284 279 278 273 268
164 169 182 193 200 201 193 204 210 205 200 211 208 212 209 199 204 218 221 235 233 232 227 219 207 178 152 210 252 277 280 269 282 310 309 305 308 305 306 308 298 295 294 297 298 298 309 312 323 326 323 325 326 306 246 231 256 271 274 272 269 275 281 282 282 285 284 285 281 280 285 283 280 277
179 169 178 196 206 199 198 213 214 201 204 201 199 200 198 212 213 213 242 226 191 191 160 134 100 103 121 166 212 218 237 253 287 297 311 321 324 314 312 290 281 287 292 292 294 299 308 308 321 323 318 316 316 308 309 272 238 257 285 290 288 284 286 289 289 290 293 293 287 285 286 288 288 284
176 184 189 202 211 197 210 215 215 219 211 200 193 195 196 202 194 198 195 141 126 128 142 126 126 131 154 189 236 262 281 320 315 319 314 309 306 293 298 305 305 302 306 297 297 299 306 307 311 310 305 309 305 300 292 299 290 264 243 280 287 289 292 297 300 299 296 297 293 287 282 285 284 284
179 176 186 197 189 192 190 177 161 156 163 165 161 153 155 137 108 116 124 106 110 112 114 122 159 178 205 207 242 317 326 325 316 312 303 305 311 316 307 300 302 303 300 297 303 298 299 293 293 287 283 285 297 298 300 302 302 294 228 246 283 292 301 303 303 303 302 296 288 289 283 279 280 284
161 172 170 158 152 133 115 109 103 102 102 109 119 128 123 120 127 119 109 122 130 130 139 147 191 202 218 222 188 190 308 326 329 308 302 300 297 301 307 309 310 306 317 310 307 302 303 300 289 287 276 278 285 284 289 294 290 290 287 260 270 289 297 310 305 303 301 301 296 285 274 271 271 273
163 146 143 136 144 134 126 120 109 111 110 110 117 130 131 137 137 130 130 140 153 168 159 183 200 207 218 210 305 21 65 217 242 254 264 290 306 305 304 306 303 302 314 306 310 306 307 296 292 288 290 283 275 276 278 271 270 277 278 284 260 250 285 311 304 301 300 298 296 296 298 300 297 293
147 136 150 150 145 141 132 124 124 117 116 121 123 130 135 142 145 158 160 173 171 171 193 215 205 194 237 276 111 140 247 276 270 293 313 320 315 311 310 317 315 311 311 303 300 302 298 291 291 296 297 288 286 298 305 312 310 311 311 308 308 245 262 285 292 295 295 300 301 302 305 311 306 305
152 149 149 151 142 135 129 128 123 116 119 125 128 134 144 152 165 172 174 181 181 191 206 207 194 211 231 178 163 144 173 261 306 319 322 319 314 314 316 319 311 307 308 298 297 291 291 297 304 309 309 312 317 331 315 311 308 308 307 311 314 307 302 297 297 297 299 303 307 311 314 306 300 297
140 146 146 154 143 140 138 137 139 136 143 140 136 141 141 154 158 160 175 180 194 198 214 226 223 194 163 234 199 172 130 356 342 326 314 309 306 307 308 303 298 293 285 285 286 291 298 305 310 318 319 321 303 310 304 307 306 308 313 321 323 325 321 315 311 314 315 309 300 300 307 307 319 324
148 144 148 153 148 148 148 144 147 145 142 147 152 147 151 157 171 185 182 184 183 188 206 182 89 115 196 213 182 162 102 15 322 329 309 300 301 295 295 302 308 305 303 298 306 309 311 315 314 322 323 315 314 324 318 318 317 320 320 316 322 329 327 330 330 326 323 321 323 327 328 325 315 311
154 153 153 161 157 155 155 150 145 156 156 148 146 153 162 167 180 194 210 201 189 169 146 130 147 188 187 169 103 53 330 316 0 318 298 305 310 313 314 310 311 312 306 304 312 310 317 317 312 322 316 315 321 314 311 313 317 322 324 329 332 334 333 334 336 336 334 329 335 335 332 331 329 333